GAOFEN-12 04

Last updated on Wed Nov 05 2025 00:02:31 GMT+0000 (Coordinated Universal Time)

1 57654U 23123A 25308.66632640 .00001651 00000+0 22764-3 0 9995 2 57654 97.9083 225.0132 0001773 80.2894 279.8518 14.79520900119423
UTC large
Height (km)
Speed (km/s)
/
Latitude / Longitude
Inclination (degrees)
Orbital Period (minutes)
Azimuth
Elevation
Range (km)
Doppler Factor

Next 0 passes for location: London (51.5072 / 0.1276)

Sorry there are no passes over London.